Regional Weather Roundup
Issued by NWS New Orleans/Baton Rouge, LA

Current Version | Previous Version | Text Only | Print | Product List | Glossary On
Versions: 1 2 3 4 5 6 7 8 9 10 11 12 13 14 15 16 17 18 19 20 21 22 23 24 25 26 27 28 29 30 31 32 33 34 35 36 37 38 39 40 41 42 43 44 45 46 47 48 49 50
000
ASUS44 KLIX 031511
RWRLIX
NEW ORLEANS REGIONAL WEATHER ROUNDUP
NATIONAL WEATHER SERVICE NEW ORLEANS LA
1000 AM CDT THU SEP 03 2015

NOTE: "FAIR" INDICATES FEW OR NO CLOUDS BELOW 12,000 FEET WITH NO
      SIGNIFICANT WEATHER AND/OR OBSTRUCTIONS TO VISIBILITY.
      SKY/WX - SKY CONDITION AND SIGNIFICANT WEATHER.
      TMP - AIR TEMPERATURE.     DP    - DEWPOINT TEMPERATURE.
      RH  - RELATIVE HUMIDITY.   PRES  - PRESSURE.
      HI  - HEAT INDEX.          WCI   - WIND CHILL INDEX.

*  THESE STATIONS ARE NOT NWS OR FAA STATIONS AND ARE NOT UNDER
   NWS QUALITY CONTROL.

LAZ038-040-048-061>063-065>067-069-031600-
SOUTHEAST LOUISIANA

CITY           SKY/WX    TMP DP  RH WIND       PRES   REMARKS
N.O. AUDUBON     N/A     87  78  75 MISG        N/A  HX 100
N.O. INTL ARPT CLOUDY    84  75  74 NE8       30.00R
N.O. LAKEFRONT PTSUNNY   81  73  76 E7        30.01S
N.O. DOWNTOWN* PTSUNNY   84  75  74 CALM      30.01S
RESERVE*         N/A     84  77  79 NE3       30.00S
SLIDELL        MOSUNNY   84  77  79 SE3       30.01R
BATON ROUGE    SUNNY     83  73  72 NE6       30.01S
BOOTHVILLE     LGT RAIN  79  74  84 S8        30.02R
BELLE CHASSE   HVY RAIN  75  73  93 CALM      30.01R VSB 3/4
BOGALUSA*      NOT AVBL
GALLIANO*      PTSUNNY   82  76  82 MISG      30.00R
NEW ROADS*       N/A     82  72  73 E6        30.01S
GONZALES*      NOT AVBL
HAMMOND*       PTSUNNY   82  72  69 CALM      30.03S
HOUMA*         NOT AVBL
PORT FOURCHON* SUNNY     81  75  83 S14G23    30.02R

$$

MSZ070-080>082-031600-
SOUTHERN MISSISSIPPI

CITY           SKY/WX    TMP DP  RH WIND       PRES   REMARKS
MCCOMB         SUNNY     83  69  62 VRB3      30.03R
GULFPORT       MOSUNNY   86  73  65 CALM      30.01R
BILOXI         MOSUNNY   83  74  76 E3        30.01R
PASCAGOULA     PTSUNNY   83  75  77 CALM      30.02R
STENNIS ARPT*  MOSUNNY   84  72  65 CALM      30.02

$$

COASTAL OBSERVATIONS
LAKE AND NEARSHORE STATIONS

STATION/POSITION TIME  TEMP    WIND        PRES    WAVE
                       AIR SEA DIR/SP/G            HT/PER
                 (UTC) (F)     (DEG/KT/KT) (MB)    (FT/S)
PASCAGOULA       1400   82     360/  4/  5 1015.5
WAVELAND YACHT   1400   81 84   60/  5/  6 1016.2
GRAND ISLE       1400   81 84  230/  5/  9 1015.9
SOUTHWEST PASS   1400   83 85  190/  4/  5 1015.9
NEW CANAL        1400   81 84   60/  6/  7 1015.0
SHELL BEACH      1400   83 85   60/  5/  6 1015.3

OFFSHORE STATIONS

STATION/POSITION TIME  TEMP    WIND        PRES    WAVE
                       AIR SEA DIR/SP/G            HT/PER
                 (UTC) (F)     (DEG/KT/KT) (MB)    (FT/S)
64 S DAUPHIN ISL 1450   77 84   30/  2/  2 1017.3    1/ 5

$$




USA.gov is the U.S. government's official web portal to all federal, state and local government web resources and services.